Weather History for KOLZ - November, 2012

Change the Weather History Date:

Wednesday, November 21, 2012

  Actual Average (KALO) Record (KALO)
Temperature  
Mean Temperature 48 °F 33 °F  
Max Temperature 64 °F 43 °F 73 °F (1990)
Min Temperature 32 °F 24 °F -4 °F (1937)
Degree Days  
Heating Degree Days 17 32  
Month to date heating degree days 548  
Since 1 July heating degree days 1171  
Cooling Degree Days 0 0  
Month to date cooling degree days 0  
Year to date cooling degree days 799  
Moisture  
Dew Point 40 °F    
Average Humidity 77    
Maximum Humidity 100    
Minimum Humidity 45    
Precipitation  
Precipitation 0.01 in 0.06 in 0.74 in (1906)
Month to date precipitation 1.47  
Year to date precipitation 32.86  
Snow  
Snow 0.00 in 0.10 in 7.00 in (1906)
Month to date snowfall 1.5  
Since 1 July snowfall 1.8  
Since 1 September snowfall 1.8  
Snow Depth -    
Sea Level Pressure  
Sea Level Pressure 30.05 in    
Wind  
Wind Speed 10 mph (South)    
Max Wind Speed 20 mph    
Max Gust Speed 23 mph    
Visibility 7 miles    
Events Fog , Snow    
T = Trace of Precipitation, MM = Missing Value Source: NWS Daily Summary

Daily Weather History Graph

Daily Weather History Graph

Search for Another Location

Airport or City:

Trip Planner

Search our weather history database for the weather conditions in past years. The results will help you decide how hot, cold, wet, or windy it might be!

Date:

Astronomy

Nov. 21, 2012 Rise Set
Actual Time 7:07 AM CST 4:39 PM CST
Civil Twilight 6:36 AM CST 5:10 PM CST
Nautical Twilight 6:02 AM CST 5:45 PM CST
Astronomical Twilight 5:28 AM CST 6:19 PM CST
Moon 1:04 PM CST (11/21) 12:18 AM CST (11/21)
Length of Visible Light 10h 34m
Length of Day
9h 32m
First Quarter, 62% of the Moon is Illuminated
Nov 21
First Quarter
Nov 28
Full
Dec 6
Last Quarter
Dec 13
New
Dec 19
First Quarter

Hourly Weather History & Observations

Time (CST) Temp. Windchill Dew Point Humidity Pressure Visibility Wind Dir Wind Speed Gust Speed Precip Events Conditions
12:15 AM 33.8 °F 28.6 °F 33.8 °F 100% 30.16 in 0.2 mi SSE 5.8 mph - N/A Snow Light Snow
12:35 AM 33.8 °F 27.0 °F 33.8 °F 100% 30.15 in 0.2 mi SSE 8.1 mph - N/A Snow Light Snow
12:55 AM 33.8 °F 27.7 °F 33.8 °F 100% 30.15 in 0.2 mi SSE 6.9 mph - N/A Snow Light Snow
1:15 AM 33.8 °F 27.7 °F 33.8 °F 100% 30.15 in 0.2 mi SSE 6.9 mph - N/A Snow Light Snow
1:35 AM 33.8 °F - 33.8 °F 100% 30.16 in 0.2 mi Calm Calm - N/A Snow Light Snow
1:55 AM 33.8 °F 28.6 °F 33.8 °F 100% 30.15 in 0.2 mi SE 5.8 mph - 0.01 in Fog Fog
2:15 AM 33.8 °F 28.6 °F 33.8 °F 100% 30.15 in 0.2 mi SE 5.8 mph - N/A Snow Light Snow
2:35 AM 33.8 °F 29.6 °F 33.8 °F 100% 30.15 in 0.2 mi SSE 4.6 mph - N/A Fog Fog
2:55 AM 33.8 °F 27.7 °F 33.8 °F 100% 30.15 in 0.2 mi SSE 6.9 mph - N/A Fog Fog
3:15 AM 33.8 °F 28.6 °F 32.0 °F 93% 30.15 in 0.2 mi SSE 5.8 mph - N/A Fog Fog
3:35 AM 32.0 °F 25.6 °F 32.0 °F 100% 30.14 in 0.2 mi SE 6.9 mph - N/A Fog Fog
3:55 AM 32.0 °F 25.6 °F 32.0 °F 100% 30.15 in 0.2 mi SSE 6.9 mph - N/A Fog Fog
4:15 AM 33.8 °F 27.7 °F 32.0 °F 93% 30.15 in 0.2 mi SSE 6.9 mph - N/A Fog Fog
4:35 AM 33.8 °F 27.7 °F 32.0 °F 93% 30.15 in 0.2 mi SSE 6.9 mph - N/A Fog Fog
4:55 AM 33.8 °F 26.4 °F 32.0 °F 93% 30.14 in 0.2 mi SSE 9.2 mph - N/A Fog Fog
5:15 AM 33.8 °F 25.8 °F 33.8 °F 100% 30.13 in 0.2 mi SSE 10.4 mph - N/A Fog Fog
5:35 AM 33.8 °F 25.8 °F 33.8 °F 100% 30.13 in 0.2 mi SSE 10.4 mph - N/A Fog Fog
5:55 AM 33.8 °F 26.4 °F 33.8 °F 100% 30.12 in 0.8 mi SSE 9.2 mph - N/A   Overcast
6:15 AM 35.6 °F 28.6 °F 33.8 °F 93% 30.12 in 1.8 mi SSE 9.2 mph - N/A   Scattered Clouds
6:35 AM 35.6 °F 28.6 °F 35.6 °F 100% 30.12 in 3.0 mi SSE 9.2 mph - N/A   Clear
6:55 AM 35.6 °F 28.0 °F 35.6 °F 100% 30.12 in 2.0 mi SSE 10.4 mph - N/A   Clear
7:15 AM 35.6 °F 28.0 °F 35.6 °F 100% 30.12 in 2.0 mi South 10.4 mph - N/A   Clear
7:35 AM 37.4 °F 30.3 °F 35.6 °F 93% 30.12 in 2.5 mi South 10.4 mph - N/A   Clear
7:55 AM 37.4 °F 29.8 °F 37.4 °F 100% 30.12 in 2.5 mi South 11.5 mph - N/A   Clear
8:15 AM 39.2 °F 31.6 °F 37.4 °F 93% 30.12 in 3.0 mi South 12.7 mph - N/A   Clear
8:35 AM 41.0 °F 33.9 °F 39.2 °F 93% 30.12 in 4.0 mi South 12.7 mph - N/A   Clear
8:55 AM 42.8 °F 36.2 °F 41.0 °F 93% 30.12 in 5.0 mi South 12.7 mph - N/A   Clear
9:15 AM 42.8 °F 36.2 °F 41.0 °F 93% 30.12 in 5.0 mi South 12.7 mph - N/A   Clear
9:35 AM 46.4 °F 39.8 °F 42.8 °F 87% 30.12 in 7.0 mi South 16.1 mph - N/A   Clear
9:55 AM 48.2 °F - 42.8 °F 82% 30.12 in 10.0 mi South 13.8 mph 19.6 mph N/A   Clear
10:15 AM 50.0 °F - 42.8 °F 76% 30.11 in 10.0 mi South 13.8 mph - N/A   Clear
10:35 AM 50.0 °F - 42.8 °F 76% 30.10 in 10.0 mi South 16.1 mph - N/A   Clear
10:55 AM 51.8 °F - 44.6 °F 76% 30.09 in 10.0 mi South 15.0 mph - N/A   Clear
11:15 AM 53.6 °F - 44.6 °F 72% 30.08 in 10.0 mi South 15.0 mph - N/A   Clear
11:35 AM 55.4 °F - 44.6 °F 67% 30.07 in 10.0 mi South 16.1 mph - N/A   Clear
11:55 AM 59.0 °F - 44.6 °F 59% 30.06 in 10.0 mi South 17.3 mph 21.9 mph N/A   Clear
12:15 PM 59.0 °F - 42.8 °F 55% 30.05 in 10.0 mi SSW 19.6 mph 23.0 mph N/A   Clear
12:35 PM 59.0 °F - 44.6 °F 59% 30.04 in 10.0 mi SSW 18.4 mph 23.0 mph N/A   Clear
12:55 PM 60.8 °F - 44.6 °F 55% 30.03 in 10.0 mi South 17.3 mph 21.9 mph N/A   Clear
1:15 PM 62.6 °F - 44.6 °F 52% 30.02 in 10.0 mi SSW 18.4 mph - N/A   Clear
1:35 PM 62.6 °F - 44.6 °F 52% 30.02 in 10.0 mi SSW 16.1 mph 23.0 mph N/A   Clear
1:55 PM 64.4 °F - 44.6 °F 49% 30.01 in 10.0 mi SSW 17.3 mph 20.7 mph N/A   Clear
2:15 PM 64.4 °F - 44.6 °F 49% 30.00 in 10.0 mi South 15.0 mph - N/A   Clear
2:35 PM 64.4 °F - 44.6 °F 49% 30.00 in 10.0 mi South 16.1 mph - N/A   Clear
2:55 PM 64.4 °F - 44.6 °F 49% 29.99 in 10.0 mi South 16.1 mph - N/A   Clear
3:15 PM 64.4 °F - 42.8 °F 45% 29.99 in 10.0 mi South 15.0 mph - N/A   Clear
3:35 PM 64.4 °F - 44.6 °F 49% 29.99 in 10.0 mi South 13.8 mph - N/A   Clear
3:55 PM 62.6 °F - 44.6 °F 52% 29.99 in 10.0 mi South 11.5 mph - N/A   Clear
4:15 PM 60.8 °F - 44.6 °F 55% 29.97 in 10.0 mi South 10.4 mph - N/A   Clear
4:35 PM 59.0 °F - 44.6 °F 59% 29.97 in 10.0 mi SSE 11.5 mph - N/A   Clear
4:55 PM 57.2 °F - 42.8 °F 59% 29.97 in 10.0 mi South 11.5 mph - N/A   Clear
5:15 PM 55.4 °F - 42.8 °F 63% 29.97 in 10.0 mi South 11.5 mph - N/A   Clear
5:55 PM 53.6 °F - 42.8 °F 67% 29.97 in 10.0 mi South 11.5 mph - N/A   Clear
5:57 PM 55.4 °F - 42.8 °F 63% 29.97 in 10.0 mi South 11.5 mph - N/A   Clear
6:15 PM 53.6 °F - 41.0 °F 62% 29.97 in 10.0 mi South 11.5 mph - N/A   Clear
6:35 PM 53.6 °F - 41.0 °F 62% 29.97 in 10.0 mi SSE 11.5 mph - N/A   Clear
6:55 PM 51.8 °F - 42.8 °F 71% 29.97 in 10.0 mi South 12.7 mph - N/A   Clear
7:15 PM 51.8 °F - 41.0 °F 67% 29.96 in 10.0 mi South 13.8 mph - N/A   Clear
7:35 PM 51.8 °F - 41.0 °F 67% 29.97 in 10.0 mi South 12.7 mph - N/A   Clear
7:55 PM 51.8 °F - 41.0 °F 67% 29.96 in 10.0 mi South 12.7 mph - N/A   Clear
8:15 PM 51.8 °F - 41.0 °F 67% 29.96 in 10.0 mi South 16.1 mph - N/A   Clear
8:35 PM 51.8 °F - 41.0 °F 67% 29.96 in 10.0 mi South 15.0 mph - N/A   Clear
8:55 PM 50.0 °F - 41.0 °F 71% 29.96 in 10.0 mi South 16.1 mph - N/A   Clear
9:15 PM 50.0 °F - 41.0 °F 71% 29.96 in 10.0 mi South 13.8 mph - N/A   Clear
9:35 PM 50.0 °F - 41.0 °F 71% 29.96 in 10.0 mi South 15.0 mph - N/A   Clear
9:55 PM 50.0 °F - 41.0 °F 71% 29.95 in 10.0 mi South 15.0 mph - N/A   Clear
10:15 PM 50.0 °F - 41.0 °F 71% 29.94 in 10.0 mi South 16.1 mph - N/A   Clear
10:35 PM 50.0 °F - 41.0 °F 71% 29.94 in 10.0 mi South 16.1 mph - N/A   Clear
10:55 PM 50.0 °F - 41.0 °F 71% 29.94 in 10.0 mi South 15.0 mph - N/A   Clear
11:15 PM 50.0 °F - 41.0 °F 71% 29.93 in 10.0 mi South 18.4 mph - N/A   Clear
11:35 PM 51.8 °F - 41.0 °F 67% 29.92 in 10.0 mi South 15.0 mph 23.0 mph N/A   Clear
11:55 PM 51.8 °F - 41.0 °F 67% 29.91 in 10.0 mi South 17.3 mph 23.0 mph N/A   Clear